Date String (YYYY-MM-DD hh:mm:ss) UTC,Instrument flags,absolute air pressure of the measurement (hPa),sample flow rate (lpm),inlet stack bypass flow (lpm),air temperature of the measurement (°C),ambient temperature measured by the external sensor (°C),aerosol sample conditioner tube jacket temperature (°C),OPC LED temperature (°C),internal box temperature (°C),relative humidity of the measurement (%),span deviation,mass concentration of particles derived from Lorenz-Mie calculation of OPC scattering (μg/m³),mass concentration of particles derived from Lorenz-Mie calculation of OPC scattering (μg/m³),mass concentration of particles derived from Lorenz-Mie calculation of OPC scattering (μg/m³)
DateTimeUTC,F1_M11,P_M11,Q1_M11,Q2_M11,T1_M11,T2_M11,T3_M11,T4_M11,T5_M11,U1_M11,ZSPAN_M11,X2_M11,X0_M11,X1_M11
2023-08-11 15:00:00,SystemResetWarning,0831.2,5.00,000.00,029.1,026.9,000.0,037.6,030.7,25.1,0000.0,0004.09,0007.27,0003.67
2023-08-11 15:01:00,SystemResetWarning,0831.2,5.00,000.00,029.1,027.2,000.0,037.6,030.8,24.5,0000.0,0004.10,0007.30,0003.68
2023-08-11 15:02:00,SystemResetWarning,0831.2,5.01,000.00,029.1,027.4,000.0,037.6,030.8,25.6,0000.0,0004.12,0007.38,0003.70
2023-08-11 15:03:00,SystemResetWarning,0831.2,4.99,000.00,029.2,027.6,000.0,037.6,030.9,26.0,0000.0,0004.15,0007.64,0003.71
2023-08-11 15:04:00,SystemResetWarning,0831.2,4.99,000.00,029.2,027.8,000.0,037.7,031.0,26.0,0000.0,0004.18,0007.78,0003.72
2023-08-11 15:05:00,SystemResetWarning,0831.2,5.01,000.00,029.3,028.0,000.0,037.7,031.0,25.4,0000.0,0004.17,0007.71,0003.73
2023-08-11 15:06:00,SystemResetWarning,0831.2,5.01,000.00,029.3,027.8,000.0,037.7,031.0,24.9,0000.0,0004.21,0007.77,0003.75
2023-08-11 15:07:00,SystemResetWarning,0831.2,4.98,000.00,029.3,026.3,000.0,037.5,030.7,24.9,0000.0,0004.22,0007.74,0003.76
2023-08-11 15:08:00,SystemResetWarning,0831.1,5.01,000.00,029.2,025.3,000.0,037.4,030.5,24.5,0000.0,0004.24,0007.81,0003.77
2023-08-11 15:09:00,SystemResetWarning,0831.1,5.01,000.00,029.1,025.5,000.0,037.4,030.4,24.9,0000.0,0004.24,0007.78,0003.78
2023-08-11 15:10:00,SystemResetWarning,0831.1,5.00,000.00,029.1,025.9,000.0,037.5,030.4,25.5,0000.0,0004.26,0007.78,0003.78
2023-08-11 15:11:00,SystemResetWarning,0831.2,5.00,000.00,029.1,026.3,000.0,037.5,030.6,24.2,0000.0,0004.27,0007.79,0003.77
2023-08-11 15:12:00,SystemResetWarning,0831.2,5.00,000.00,029.1,026.7,000.0,037.5,030.7,26.9,0000.0,0004.27,0008.71,0003.77
2023-08-11 15:13:00,SystemResetWarning,0831.2,5.00,000.00,029.1,027.0,000.0,037.6,030.7,26.8,0000.0,0004.27,0008.81,0003.76
2023-08-11 15:14:00,SystemResetWarning,0831.2,5.00,000.00,029.1,027.3,000.0,037.6,030.8,26.5,0000.0,0004.27,0008.79,0003.76
2023-08-11 15:15:00,SystemResetWarning,0831.2,5.01,000.00,029.2,027.5,000.0,037.6,030.9,26.1,0000.0,0004.29,0008.61,0003.75
2023-08-11 15:16:00,SystemResetWarning,0831.2,5.00,000.00,029.2,027.7,000.0,037.6,030.9,25.1,0000.0,0004.33,0009.00,0003.75
2023-08-11 15:17:00,SystemResetWarning,0831.2,4.99,000.00,029.2,027.9,000.0,037.6,031.0,25.3,0000.0,0004.35,0009.48,0003.76
2023-08-11 15:18:00,SystemResetWarning,0831.2,4.99,000.00,029.3,027.9,000.0,037.7,031.0,26.1,0000.0,0004.32,0009.44,0003.75
2023-08-11 15:19:00,SystemResetWarning,0831.2,4.98,000.00,029.3,026.7,000.0,037.5,030.8,26.2,0000.0,0004.31,0009.37,0003.75
2023-08-11 15:20:00,SystemResetWarning,0831.1,5.02,000.00,029.2,025.4,000.0,037.4,030.6,25.2,0000.0,0004.33,0009.35,0003.76
2023-08-11 15:21:00,SystemResetWarning,0831.1,5.01,000.00,029.1,025.4,000.0,037.4,030.5,24.8,0000.0,0004.36,0009.36,0003.80
2023-08-11 15:22:00,SystemResetWarning,0831.1,4.99,000.00,029.1,025.8,000.0,037.4,030.4,25.3,0000.0,0004.35,0009.30,0003.83
2023-08-11 15:23:00,SystemResetWarning,0831.2,5.00,000.00,029.0,026.1,000.0,037.5,030.5,25.9,0000.0,0004.40,0008.92,0003.85
2023-08-11 15:24:00,SystemResetWarning,0831.2,5.01,000.00,029.1,026.5,000.0,037.5,030.6,26.0,0000.0,0004.46,0009.68,0003.87
2023-08-11 15:25:00,SystemResetWarning,0831.2,4.99,000.00,029.1,026.9,000.0,037.5,030.7,26.2,0000.0,0004.47,0010.00,0003.89
2023-08-11 15:26:00,SystemResetWarning,0831.3,5.00,000.00,029.1,027.2,000.0,037.6,030.8,26.0,0000.0,0004.49,0010.07,0003.91
2023-08-11 15:27:00,SystemResetWarning,0831.3,5.00,000.00,029.2,027.5,000.0,037.6,030.9,25.8,0000.0,0004.49,0009.95,0003.93
2023-08-11 15:28:00,SystemResetWarning,0831.2,5.01,000.00,029.2,027.7,000.0,037.6,030.9,25.6,0000.0,0004.47,0009.26,0003.95
2023-08-11 15:29:00,SystemResetWarning,0831.3,5.00,000.00,029.2,027.8,000.0,037.6,031.0,26.0,0000.0,0004.48,0009.30,0003.98
2023-08-11 15:30:00,SystemResetWarning,0831.3,4.98,000.00,029.2,026.9,000.0,037.5,030.8,26.8,0000.0,0004.51,0010.16,0003.98
2023-08-11 15:31:00,SystemResetWarning,0831.3,5.01,000.00,029.2,025.5,000.0,037.4,030.4,28.2,0000.0,0004.49,0010.04,0003.97
2023-08-11 15:32:00,SystemResetWarning,0831.2,5.01,000.00,029.1,025.3,000.0,037.3,030.4,28.0,0000.0,0004.47,0010.01,0003.96
2023-08-11 15:33:00,SystemResetWarning,0831.3,5.00,000.00,029.0,025.7,000.0,037.4,030.3,27.5,0000.0,0004.47,0010.07,0003.94
2023-08-11 15:34:00,SystemResetWarning,0831.2,5.00,000.00,029.0,026.0,000.0,037.4,030.4,28.0,0000.0,0004.48,0009.89,0003.93
2023-08-11 15:35:00,SystemResetWarning,0831.2,5.00,000.00,029.0,026.4,000.0,037.5,030.6,29.8,0000.0,0004.44,0008.91,0003.90
2023-08-11 15:36:00,SystemResetWarning,0831.3,5.00,000.00,029.0,026.8,000.0,037.5,030.7,30.0,0000.0,0004.42,0008.50,0003.88
2023-08-11 15:37:00,SystemResetWarning,0831.3,5.00,000.00,029.1,027.1,000.0,037.5,030.7,28.8,0000.0,0004.40,0008.37,0003.88
2023-08-11 15:38:00,SystemResetWarning,0831.3,5.00,000.00,029.1,027.3,000.0,037.5,030.8,28.2,0000.0,0004.37,0008.28,0003.88
2023-08-11 15:39:00,SystemResetWarning,0831.3,5.00,000.00,029.1,027.6,000.0,037.5,030.9,27.9,0000.0,0004.36,0008.31,0003.86
2023-08-11 15:40:00,SystemResetWarning,0831.3,4.99,000.00,029.2,027.6,000.0,037.5,030.9,27.9,0000.0,0004.40,0008.58,0003.84
2023-08-11 15:41:00,SystemResetWarning,0831.3,5.00,000.00,029.1,026.2,000.0,037.4,030.6,26.1,0000.0,0004.41,0008.37,0003.84
2023-08-11 15:42:00,SystemResetWarning,0831.3,5.00,000.00,029.1,025.1,000.0,037.3,030.4,26.3,0000.0,0004.39,0008.30,0003.84
2023-08-11 15:43:00,SystemResetWarning,0831.3,5.01,000.00,029.0,025.3,000.0,037.3,030.3,25.9,0000.0,0004.36,0008.26,0003.84
2023-08-11 15:44:00,SystemResetWarning,0831.3,5.01,000.00,028.9,025.7,000.0,037.3,030.3,26.3,0000.0,0004.36,0008.25,0003.84
2023-08-11 15:45:00,SystemResetWarning,0831.3,4.99,000.00,028.9,026.1,000.0,037.4,030.4,26.6,0000.0,0004.34,0008.42,0003.84
2023-08-11 15:46:00,SystemResetWarning,0831.3,5.00,000.00,028.9,026.4,000.0,037.4,030.5,26.4,0000.0,0004.33,0008.60,0003.86
2023-08-11 15:47:00,SystemResetWarning,0831.3,5.00,000.00,029.0,026.8,000.0,037.4,030.6,26.1,0000.0,0004.35,0008.50,0003.89
2023-08-11 15:48:00,SystemResetWarning,0831.3,5.00,000.00,029.0,027.1,000.0,037.4,030.7,26.1,0000.0,0004.33,0008.58,0003.88
2023-08-11 15:49:00,SystemResetWarning,0831.3,5.00,000.00,029.1,027.4,000.0,037.5,030.8,26.8,0000.0,0004.34,0008.91,0003.88
2023-08-11 15:50:00,SystemResetWarning,0831.3,4.99,000.00,029.1,027.6,000.0,037.5,030.9,26.6,0000.0,0004.34,0008.96,0003.88
2023-08-11 15:51:00,SystemResetWarning,0831.3,4.99,000.00,029.1,027.3,000.0,037.4,030.8,24.5,0000.0,0004.32,0008.82,0003.88
2023-08-11 15:52:00,SystemResetWarning,0831.3,5.00,000.00,029.1,025.7,000.0,037.3,030.5,25.3,0000.0,0004.31,0008.21,0003.88
2023-08-11 15:53:00,SystemResetWarning,0831.3,5.02,000.00,029.0,025.1,000.0,037.2,030.3,25.2,0000.0,0004.33,0008.26,0003.89
2023-08-11 15:54:00,SystemResetWarning,0831.3,5.00,000.00,029.0,025.5,000.0,037.2,030.3,25.7,0000.0,0004.35,0008.32,0003.88
2023-08-11 15:55:00,SystemResetWarning,0831.3,5.00,000.00,028.9,025.8,000.0,037.3,030.3,26.2,0000.0,0004.35,0008.40,0003.87
2023-08-11 15:56:00,SystemResetWarning,0831.3,5.01,000.00,028.9,026.2,000.0,037.3,030.4,27.8,0000.0,0004.36,0008.21,0003.89
2023-08-11 15:57:00,SystemResetWarning,0831.3,5.00,000.00,028.9,026.6,000.0,037.4,030.5,27.3,0000.0,0004.36,0007.94,0003.89
2023-08-11 15:58:00,SystemResetWarning,0831.3,4.99,000.00,028.9,026.9,000.0,037.4,030.6,26.8,0000.0,0004.37,0008.25,0003.89
2023-08-11 15:59:00,SystemResetWarning,0831.3,4.99,000.00,029.0,027.2,000.0,037.4,030.7,25.9,0000.0,0004.43,0009.17,0003.89
